Location: Unspecified
(0.0000°N, 0.0000°E)
Time: 01:57:52
(UTC+00:00)

deb Explorer IX - Pass Details

Date: 25 November 2019
Orbit: 546 x 1104 km, 38.8° (Epoch: 11 December)

Event Time Altitude Azimuth Distance (km) Brightness Sun altitude
Rises 18:05:22 0° 221° (SW) 3,524 ? -4.3°
Reaches altitude 10° 18:07:51 10° 218° (SW) 2,660 ? -4.9°
Maximum altitude 18:14:18 62° 138° (SE) 1,148 ? -6.4°
Drops below altitude 10° 18:21:25 10° 59° (ENE) 2,928 ? -8.0°
Enters shadow 18:21:45 - 58° (ENE) 3,039 ? -8.1°
Sets 18:24:16 0° 56° (NE) 3,903 - -8.7°
